User: anonymous   Login
Location: Antioch Baptist Church
(32.6696°N, 85.7327°W)
Time: 01:33:31
(UTC+00:00)
Language:

ERBS - Orbit

View from above orbital plane
View from above orbital plane
View from above satellite
View from above satellite

Ground track
Ground track

The orbit data is extracted from the following two-line orbital elements,

1 15354U 84108B   20272.73229749  .00005687  00000-0  10695-3 0  9995
2 15354  57.0072 346.9748 0004522 218.9226 141.1507 15.50151195983849
Epoch (UTC): 28 September 2020 17:34:30
Eccentricity: 0.0004522
inclination: 57.0072°
perigee height: 413 km
apogee height: 419 km
right ascension of ascending node: 346.9748°
argument of perigee: 218.9226°
revolutions per day: 15.50151195
mean anomaly at epoch: 141.1507°
orbit number at epoch: 98384

The dashed part of the orbit path shows where the satellite is in the earth's shadow,  

DLR